Location: Allentsteig
(48.6833°N, 15.3167°E)
Time: 23:41:41
(UTC+00:00)

Cosmos 2298 Rocket - Pass Details

Date: 25 January 2021
Orbit: 775 x 784 km, 74.0° (Epoch: 03 March)

Event Time Altitude Azimuth Distance (km) Brightness Sun altitude
Exits shadow 04:24:30 18° 340° (NNW) 1,847 5.7 -21.7°
Maximum altitude 04:28:32 81° 67° (ENE) 800 4.1 -21.0°
Drops below altitude 10° 04:33:51 10° 155° (SSE) 2,336 6.9 -20.1°
Sets 04:36:14 0° 156° (SSE) 3,260 7.7 -19.8°
